Weather History for Oconto, WI

Change the Weather History Date:

Tuesday, March 18, 2014

  Actual Average Record
Temperature  
Mean Temperature 26 °F -  
Max Temperature 34 °F 37 °F 34 °F (2014)
Min Temperature 18 °F 18 °F 8 °F (2013)
Degree Days  
Heating Degree Days 40    
Moisture  
Dew Point 24 °F    
Average Humidity 81    
Maximum Humidity 93    
Minimum Humidity 71    
Precipitation  
Precipitation 0.00 in - - ()
Sea Level Pressure  
Sea Level Pressure 29.87 in    
Wind  
Wind Speed 5 mph (East)    
Max Wind Speed 14 mph    
Max Gust Speed 16 mph    
Visibility 10 miles    
Events      
Averages and records for this station are not official NWS values.
T = Trace of Precipitation, MM = Missing Value Source: NWS Daily Summary

Daily Weather History Graph

Daily Weather History Graph

Search for Another Location

Airport:

Trip Planner

Search our weather history database for the weather conditions in past years. The results will help you decide how hot, cold, wet, or windy it might be!

Date:

Astronomy

Mar. 18, 2014 Rise Set
Actual Time 6:58 AM CDT 7:01 PM CDT
Civil Twilight 6:29 AM CDT 7:30 PM CDT
Nautical Twilight 5:55 AM CDT 8:05 PM CDT
Astronomical Twilight 5:20 AM CDT 8:40 PM CDT
Moon 9:25 PM CDT (3/18) 7:42 AM CDT (3/18)
Length of Visible Light 13h 01m
Length of Day
12h 03m
Waning Gibbous, 96% of the Moon is Illuminated
Mar 18
Waning Gibbous
Mar 23
Last Quarter
Mar 30
New
Apr 7
First Quarter
Apr 15
Full

Hourly Weather History & Observations

Time (CDT) Temp. Windchill Dew Point Humidity Pressure Visibility Wind Dir Wind Speed Gust Speed Precip Events Conditions
12:15 AM 26.6 °F 22.6 °F 18.5 °F 71% 29.85 in 10.0 mi SE 3.5 mph - N/A   Mostly Cloudy
12:30 AM 27.0 °F 21.6 °F 19.0 °F 72% 29.85 in 10.0 mi SE 4.6 mph - N/A   Mostly Cloudy
12:55 AM 26.1 °F - 18.3 °F 73% 29.85 in 10.0 mi Calm Calm - N/A   Mostly Cloudy
1:10 AM 24.8 °F 20.5 °F 18.5 °F 77% 29.86 in 10.0 mi NE 3.5 mph - N/A   Scattered Clouds
1:35 AM 23.0 °F 18.4 °F 18.5 °F 83% 29.86 in 10.0 mi SE 3.5 mph - N/A   Clear
1:50 AM 21.0 °F 16.2 °F 17.4 °F 86% 29.86 in 10.0 mi SE 3.5 mph - N/A   Clear
2:15 AM 21.9 °F 15.7 °F 17.6 °F 83% 29.85 in 10.0 mi SE 4.6 mph - N/A   Clear
2:35 AM 23.7 °F 19.3 °F 17.6 °F 77% 29.85 in 10.0 mi ESE 3.5 mph - N/A   Clear
2:55 AM 24.3 °F 19.9 °F 18.1 °F 77% 29.85 in 10.0 mi ESE 3.5 mph - N/A   Clear
3:15 AM 23.7 °F 19.3 °F 18.3 °F 80% 29.85 in 10.0 mi ESE 3.5 mph - N/A   Clear
3:35 AM 24.1 °F - 18.5 °F 79% 29.85 in 10.0 mi Calm Calm - N/A   Clear
3:55 AM 23.4 °F 18.9 °F 18.9 °F 83% 29.85 in 10.0 mi ESE 3.5 mph - N/A   Clear
4:15 AM 25.2 °F 20.9 °F 19.8 °F 80% 29.85 in 10.0 mi ESE 3.5 mph - N/A   Clear
4:35 AM 25.5 °F 21.3 °F 20.3 °F 81% 29.84 in 10.0 mi ESE 3.5 mph - N/A   Clear
4:55 AM 24.4 °F 20.1 °F 19.9 °F 83% 29.84 in 10.0 mi ESE 3.5 mph - N/A   Clear
5:15 AM 23.9 °F 19.5 °F 20.1 °F 85% 29.84 in 10.0 mi ESE 3.5 mph - N/A   Clear
5:35 AM 24.4 °F - 20.7 °F 86% 29.84 in 10.0 mi Calm Calm - N/A   Clear
5:55 AM 23.0 °F - 19.8 °F 87% 29.85 in 10.0 mi Calm Calm - N/A   Clear
6:15 AM 21.2 °F - 18.9 °F 91% 29.85 in 10.0 mi Calm Calm - N/A   Clear
6:35 AM 20.1 °F - 18.0 °F 91% 29.85 in 10.0 mi Calm Calm - N/A   Clear
6:55 AM 19.8 °F - 18.0 °F 93% 29.86 in 10.0 mi Calm Calm - N/A   Clear
7:15 AM 19.0 °F - 17.2 °F 93% 29.86 in 7.0 mi Calm Calm - N/A   Clear
7:35 AM 18.9 °F - 17.1 °F 93% 29.86 in 7.0 mi Calm Calm - N/A   Clear
7:55 AM 22.8 °F 15.5 °F 21.0 °F 93% 29.86 in 7.0 mi ESE 5.8 mph - N/A   Clear
8:15 AM 24.4 °F 17.5 °F 21.9 °F 90% 29.86 in 10.0 mi ESE 5.8 mph - N/A   Clear
8:35 AM 26.6 °F 17.5 °F 23.2 °F 87% 29.86 in 10.0 mi ESE 9.2 mph - N/A   Clear
8:55 AM 27.7 °F 18.2 °F 23.7 °F 85% 29.87 in 10.0 mi SE 10.4 mph - N/A   Clear
9:15 AM 29.1 °F 20.6 °F 24.4 °F 83% 29.88 in 10.0 mi SE 9.2 mph - N/A   Clear
9:35 AM 30.2 °F 22.6 °F 24.8 °F 80% 29.89 in 10.0 mi SE 8.1 mph - N/A   Clear
9:55 AM 30.9 °F 21.7 °F 25.5 °F 80% 29.90 in 10.0 mi SE 11.5 mph - N/A   Scattered Clouds
10:10 AM 31.8 °F 23.9 °F 26.1 °F 79% 29.90 in 10.0 mi SE 9.2 mph - N/A   Mostly Cloudy
10:35 AM 32.0 °F 23.0 °F 26.2 °F 79% 29.91 in 10.0 mi SE 11.5 mph 16.1 mph N/A   Overcast
10:55 AM 32.0 °F 24.2 °F 26.4 °F 80% 29.91 in 10.0 mi ESE 9.2 mph - N/A   Overcast
11:15 AM 32.0 °F 23.6 °F 26.6 °F 80% 29.91 in 10.0 mi ESE 10.4 mph - N/A   Overcast
11:35 AM 32.0 °F 24.8 °F 26.6 °F 80% 29.92 in 10.0 mi ESE 8.1 mph - N/A   Overcast
11:55 AM 32.0 °F 24.2 °F 26.6 °F 80% 29.91 in 10.0 mi ESE 9.2 mph - N/A   Overcast
12:15 PM 32.2 °F 23.2 °F 27.0 °F 81% 29.92 in 10.0 mi ESE 11.5 mph - N/A   Overcast
12:35 PM 32.4 °F 24.0 °F 27.5 °F 82% 29.92 in 10.0 mi ESE 10.4 mph - N/A   Overcast
12:55 PM 32.7 °F 24.5 °F 27.0 °F 79% 29.92 in 10.0 mi ESE 10.4 mph - N/A   Overcast
1:15 PM 32.9 °F 26.7 °F 27.1 °F 79% 29.91 in 10.0 mi East 6.9 mph 16.1 mph N/A   Overcast
1:35 PM 33.8 °F 27.0 °F 27.3 °F 77% 29.91 in 10.0 mi East 8.1 mph - N/A   Overcast
1:55 PM 33.8 °F 24.3 °F 27.5 °F 78% 29.90 in 10.0 mi ESE 13.8 mph - N/A   Scattered Clouds
2:10 PM 33.4 °F 24.3 °F 27.3 °F 78% 29.89 in 10.0 mi ESE 12.7 mph - N/A   Scattered Clouds
2:35 PM 33.1 °F 24.4 °F 27.5 °F 80% 29.89 in 10.0 mi ESE 11.5 mph - N/A   Scattered Clouds
2:55 PM 32.9 °F 23.2 °F 27.5 °F 81% 29.88 in 10.0 mi ESE 13.8 mph - N/A   Mostly Cloudy
3:15 PM 33.1 °F 24.4 °F 27.5 °F 80% 29.88 in 10.0 mi ESE 11.5 mph - N/A   Scattered Clouds
3:35 PM 33.4 °F 23.9 °F 27.7 °F 79% 29.88 in 10.0 mi ESE 13.8 mph - N/A   Scattered Clouds
3:55 PM 32.9 °F 25.3 °F 27.9 °F 82% 29.87 in 10.0 mi East 9.2 mph - N/A   Scattered Clouds
4:15 PM 33.1 °F 27.7 °F 27.7 °F 81% 29.89 in 10.0 mi ESE 5.8 mph - N/A   Mostly Cloudy
4:35 PM 33.3 °F 25.7 °F 27.1 °F 78% 29.88 in 10.0 mi ESE 9.2 mph - N/A   Overcast
4:55 PM 33.3 °F 27.1 °F 27.5 °F 79% 29.88 in 10.0 mi ENE 6.9 mph - N/A   Overcast
5:15 PM 33.3 °F 27.9 °F 27.1 °F 78% 29.88 in 10.0 mi East 5.8 mph - N/A   Overcast
5:35 PM 33.1 °F 26.9 °F 27.0 °F 78% 29.88 in 10.0 mi ENE 6.9 mph - N/A   Overcast
5:55 PM 32.5 °F 25.5 °F 26.6 °F 79% 29.87 in 10.0 mi ENE 8.1 mph - N/A   Overcast
6:15 PM 32.4 °F 25.3 °F 26.2 °F 78% 29.86 in 10.0 mi East 8.1 mph - N/A   Overcast
6:35 PM 32.0 °F 24.2 °F 26.1 °F 79% 29.85 in 10.0 mi East 9.2 mph - N/A   Mostly Cloudy
6:55 PM 32.0 °F 24.2 °F 25.7 °F 78% 29.85 in 10.0 mi ENE 9.2 mph - N/A   Overcast
7:10 PM 32.0 °F 24.8 °F 26.2 °F 79% 29.84 in 10.0 mi ENE 8.1 mph - N/A   Overcast
7:35 PM 32.0 °F 24.8 °F 26.2 °F 79% 29.84 in 10.0 mi ENE 8.1 mph 16.1 mph N/A   Overcast
7:55 PM 32.0 °F 25.6 °F 26.6 °F 80% 29.87 in 10.0 mi NE 6.9 mph - N/A   Overcast
8:15 PM 32.0 °F 25.6 °F 26.4 °F 80% 29.88 in 10.0 mi NE 6.9 mph - N/A   Overcast
8:35 PM 32.5 °F 26.2 °F 25.7 °F 76% 29.88 in 10.0 mi NE 6.9 mph - N/A   Overcast
8:55 PM 32.5 °F 27.1 °F 25.7 °F 76% 29.88 in 10.0 mi NE 5.8 mph - N/A   Overcast
9:15 PM 32.9 °F 25.9 °F 25.7 °F 75% 29.88 in 10.0 mi NE 8.1 mph - N/A   Overcast
9:35 PM 32.0 °F 24.2 °F 26.1 °F 79% 29.86 in 10.0 mi NE 9.2 mph - N/A   Overcast
9:55 PM 32.0 °F 24.2 °F 26.6 °F 80% 29.86 in 10.0 mi ENE 9.2 mph - N/A   Scattered Clouds
10:15 PM 31.5 °F 24.9 °F 26.6 °F 82% 29.86 in 10.0 mi ENE 6.9 mph - N/A   Clear
10:35 PM 31.6 °F 25.1 °F 26.8 °F 82% 29.86 in 10.0 mi ENE 6.9 mph - N/A   Clear
10:55 PM 31.5 °F 23.5 °F 27.1 °F 84% 29.84 in 10.0 mi NE 9.2 mph - N/A   Scattered Clouds
11:15 PM 31.8 °F 25.4 °F 27.5 °F 84% 29.84 in 10.0 mi NE 6.9 mph - N/A   Scattered Clouds
11:35 PM 32.0 °F 26.4 °F 27.7 °F 84% 29.84 in 10.0 mi ENE 5.8 mph - N/A   Mostly Cloudy
11:55 PM 32.0 °F 26.4 °F 28.2 °F 86% 29.83 in 10.0 mi NE 5.8 mph - N/A   Overcast